| time (UTC) | temp C | wind direction | speed KPH | gust KPH | rain 1hr cm | rain 24hr cm | rain mn cm | humidity % | barometer mb |
| 20260901175357 | 30 | 346 | 3.2 | 9.7 | 0.00 | 1.07 | 0.36 | 82 | 1016.3 |
| 20260901174353 | 29 | 317 | 1.6 | 6.4 | 0.00 | 1.07 | 0.36 | 84 | 1016.3 |
| 20260901173354 | 29 | 317 | 1.6 | 6.4 | 0.00 | 1.07 | 0.36 | 86 | 1016.5 |
| 20260901172345 | 29 | 318 | 0.0 | 4.8 | 0.00 | 1.07 | 0.36 | 87 | 1016.6 |
| 20260901171836 | 28 | 318 | 1.6 | 6.4 | 0.00 | 1.07 | 0.36 | 87 | 1016.7 |
| 20260901170345 | 28 | 319 | 1.6 | 4.8 | 0.00 | 1.07 | 0.36 | 88 | 1016.9 |
| 20260901165827 | 28 | 320 | 0.0 | 3.2 | 0.00 | 1.07 | 0.36 | 90 | 1017.0 |
| 20260901164334 | 27 | 320 | 0.0 | 1.6 | 0.00 | 1.07 | 0.36 | 89 | 1017.0 |
| 20260901163332 | 27 | 320 | 0.0 | 6.4 | 0.00 | 1.07 | 0.36 | 91 | 1017.1 |
| 20260901162329 | 27 | 22 | 1.6 | 6.4 | 0.00 | 1.07 | 0.36 | 91 | 1017.2 |
| 20260901161328 | 27 | 29 | 0.0 | 0.0 | 0.03 | 1.07 | 0.36 | 91 | 1017.2 |
| 20260901161248 | 26 | 29 | 1.6 | 6.4 | 0.30 | 1.07 | 0.36 | 90 | 1017.2 |
| 20260901155312 | 27 | 19 | 3.2 | 6.4 | 0.30 | 1.07 | 0.36 | 91 | 1017.4 |
| 20260901154749 | 27 | 5 | 0.0 | 4.8 | 0.36 | 1.07 | 0.36 | 91 | 1017.4 |
| 20260901153308 | 27 | 5 | 1.6 | 4.8 | 0.36 | 1.07 | 0.36 | 90 | 1017.2 |
| 20260901152307 | 27 | 5 | 1.6 | 6.4 | 0.36 | 1.07 | 0.36 | 92 | 1017.3 |
| 20260901151741 | 27 | 5 | 4.8 | 12.9 | 0.33 | 1.04 | 0.33 | 91 | 1017.3 |
| 20260901150258 | 28 | 320 | 3.2 | 9.7 | 0.05 | 0.76 | 0.05 | 91 | 1017.2 |
| 20260901145255 | 28 | 329 | 6.4 | 12.9 | 0.05 | 0.76 | 0.05 | 89 | 1017.1 |
| 20260901144246 | 28 | 346 | 6.4 | 12.9 | 0.00 | 0.71 | 0.00 | 89 | 1017.0 |
| 20260901143725 | 28 | 319 | 4.8 | 8.0 | 0.00 | 0.71 | 0.00 | 89 | 1016.9 |
| 20260901142235 | 28 | 352 | 1.6 | 6.4 | 0.00 | 0.71 | 0.00 | 88 | 1016.9 |
| 20260901141237 | 28 | 352 | 3.2 | 6.4 | 0.00 | 0.71 | 0.00 | 86 | 1016.9 |
| 20260901140719 | 28 | 352 | 0.0 | 1.6 | 0.00 | 0.71 | 0.00 | 89 | 1016.8 |
| 20260901135216 | 28 | 352 | 1.6 | 4.8 | 0.00 | 0.71 | 0.00 | 89 | 1016.8 |
| 20260901134213 | 28 | 352 | 3.2 | 8.0 | 0.00 | 0.71 | 0.00 | 89 | 1016.8 |
| 20260901133658 | 28 | 358 | 3.2 | 6.4 | 0.00 | 0.71 | 0.00 | 90 | 1016.6 |
| 20260901132210 | 28 | 358 | 3.2 | 6.4 | 0.00 | 0.71 | 0.00 | 92 | 1016.7 |
| 20260901131210 | 28 | 356 | 3.2 | 8.0 | 0.00 | 0.71 | 0.00 | 93 | 1016.7 |
| 20260901130154 | 27 | 350 | 1.6 | 6.4 | 0.00 | 0.71 | 0.00 | 94 | 1016.5 |
| 20260901125145 | 27 | 350 | 3.2 | 6.4 | 0.00 | 0.71 | 0.00 | 95 | 1016.5 |
| 20260901124147 | 26 | 350 | 1.6 | 4.8 | 0.00 | 0.71 | 0.00 | 95 | 1016.6 |
| 20260901123145 | 26 | 350 | 1.6 | 6.4 | 0.00 | 0.71 | 0.00 | 95 | 1016.5 |
| 20260901122143 | 26 | 350 | 3.2 | 4.8 | 0.00 | 0.71 | 0.00 | 95 | 1016.4 |
| 20260901121132 | 26 | 350 | 1.6 | 4.8 | 0.00 | 0.71 | 0.00 | 95 | 1016.3 |
| 20260901120134 | 26 | 348 | 0.0 | 4.8 | 0.00 | 0.71 | 0.00 | 95 | 1016.2 |
| 20260901115133 | 25 | 348 | 3.2 | 8.0 | 0.00 | 0.71 | 0.00 | 95 | 1016.2 |
| 20260901114134 | 25 | 358 | 4.8 | 9.7 | 0.00 | 0.71 | 0.00 | 95 | 1016.0 |
| 20260901113127 | 25 | 28 | 4.8 | 8.0 | 0.00 | 0.71 | 0.00 | 95 | 1016.0 |
| 20260901112550 | 25 | 28 | 3.2 | 8.0 | 0.00 | 0.71 | 0.00 | 95 | 1015.9 |
| 20260901111111 | 25 | 28 | 1.6 | 6.4 | 0.00 | 0.71 | 0.00 | 95 | 1015.8 |
| 20260901110106 | 25 | 28 | 1.6 | 4.8 | 0.00 | 0.71 | 0.00 | 95 | 1015.8 |
| 20260901105052 | 25 | 28 | 1.6 | 4.8 | 0.00 | 0.71 | 0.00 | 95 | 1015.8 |
| 20260901104048 | 25 | 28 | 0.0 | 4.8 | 0.00 | 0.71 | 0.00 | 95 | 1015.7 |
| 20260901103048 | 25 | 28 | 0.0 | 3.2 | 0.00 | 0.71 | 0.00 | 95 | 1015.7 |
| 20260901102048 | 25 | 28 | 3.2 | 6.4 | 0.00 | 0.71 | 0.00 | 95 | 1015.6 |
| 20260901101050 | 24 | 28 | 0.0 | 4.8 | 0.00 | 0.71 | 0.00 | 95 | 1015.5 |
| 20260901100049 | 24 | 28 | 0.0 | 0.0 | 0.00 | 0.71 | 0.00 | 95 | 1015.3 |
| 20260901095042 | 24 | 28 | 0.0 | 0.0 | 0.00 | 0.71 | 0.00 | 95 | 1015.2 |
| 20260901094043 | 24 | 28 | 0.0 | 0.0 | 0.00 | 0.71 | 0.00 | 95 | 1015.3 |
| 20260901093521 | 24 | 28 | 0.0 | 0.0 | 0.00 | 0.71 | 0.00 | 95 | 1015.3 |
| 20260901092042 | 25 | 28 | 0.0 | 3.2 | 0.00 | 0.71 | 0.00 | 95 | 1015.2 |
| 20260901091035 | 25 | 28 | 0.0 | 3.2 | 0.00 | 0.71 | 0.00 | 95 | 1015.1 |
| 20260901090034 | 25 | 28 | 0.0 | 1.6 | 0.00 | 0.71 | 0.00 | 95 | 1015.1 |
| 20260901085509 | 25 | 28 | 0.0 | 1.6 | 0.00 | 0.71 | 0.00 | 95 | 1015.1 |
| 20260901084035 | 25 | 28 | 0.0 | 3.2 | 0.00 | 0.71 | 0.00 | 95 | 1015.0 |
| 20260901083025 | 25 | 28 | 1.6 | 4.8 | 0.00 | 0.71 | 0.00 | 95 | 1015.0 |
| 20260901082510 | 25 | 28 | 3.2 | 4.8 | 0.00 | 0.71 | 0.00 | 95 | 1014.9 |
| 20260901081025 | 24 | 28 | 0.0 | 3.2 | 0.00 | 0.71 | 0.00 | 95 | 1014.9 |
| 20260901080028 | 25 | 28 | 1.6 | 3.2 | 0.00 | 0.71 | 0.00 | 95 | 1015.2 |
| 20260901075015 | 24 | 28 | 1.6 | 4.8 | 0.00 | 0.71 | 0.00 | 95 | 1015.2 |
| 20260901074014 | 24 | 28 | 0.0 | 3.2 | 0.00 | 0.71 | 0.00 | 95 | 1015.2 |
| 20260901073012 | 24 | 28 | 0.0 | 1.6 | 0.00 | 0.71 | 0.00 | 95 | 1015.2 |
| 20260901072931 | 25 | 28 | 0.0 | 1.6 | 0.00 | 0.71 | 0.00 | 95 | 1015.3 |
| 20260901071010 | 24 | 28 | 0.0 | 0.0 | 0.00 | 0.71 | 0.00 | 95 | 1015.6 |
| 20260901070012 | 25 | 28 | 0.0 | 0.0 | 0.00 | 0.71 | 0.00 | 95 | 1015.8 |
| 20260901065009 | 25 | 28 | 0.0 | 1.6 | 0.00 | 0.71 | 0.00 | 95 | 1015.7 |
| 20260901064007 | 25 | 28 | 1.6 | 6.4 | 0.00 | 0.71 | 0.00 | 95 | 1015.8 |
| 20260901062959 | 25 | 28 | 3.2 | 6.4 | 0.00 | 0.71 | 0.00 | 95 | 1016.1 |
| 20260901062928 | 25 | 28 | 1.6 | 4.8 | 0.00 | 0.71 | 0.00 | 95 | 1016.2 |
| 20260901061921 | 25 | 28 | 3.2 | 4.8 | 0.00 | 0.71 | 0.00 | 95 | 1016.5 |
| 20260901060001 | 25 | 28 | 1.6 | 6.4 | 0.00 | 0.71 | 0.00 | 95 | 1016.5 |
| 20260901055938 | 25 | 28 | 0.0 | 3.2 | 0.00 | 0.71 | 0.00 | 95 | 1016.8 |
| 20260901053959 | 25 | 28 | 0.0 | 0.0 | 0.00 | 0.71 | 0.00 | 94 | 1016.7 |
| 20260901052959 | 25 | 28 | 0.0 | 1.6 | 0.00 | 0.71 | 0.00 | 94 | 1017.0 |
| 20260901051957 | 25 | 28 | 0.0 | 0.0 | 0.00 | 0.71 | 0.00 | 95 | 1017.0 |
| 20260901051000 | 25 | 28 | 0.0 | 0.0 | 0.00 | 0.71 | 0.00 | 94 | 1017.0 |
| 20260901045959 | 25 | 28 | 0.0 | 0.0 | 0.00 | 0.71 | 0.00 | 94 | 1017.1 |
| 20260901044957 | 25 | 28 | 1.6 | 4.8 | 0.00 | 0.71 | 0.00 | 95 | 1017.3 |
| 20260901043958 | 25 | 28 | 0.0 | 3.2 | 0.00 | 0.71 | 0.00 | 94 | 1017.1 |
| 20260901043914 | 25 | 28 | 0.0 | 0.0 | 0.00 | 0.71 | 0.00 | 94 | 1017.0 |
| 20260901041954 | 25 | 28 | 0.0 | 4.8 | 0.00 | 0.71 | 0.00 | 94 | 1017.1 |
| 20260901040941 | 25 | 28 | 1.6 | 6.4 | 0.00 | 0.71 | 0.00 | 94 | 1017.1 |
| 20260901035938 | 25 | 28 | 0.0 | 0.0 | 0.00 | 0.71 | 0.71 | 94 | 1017.2 |
| 20260901034938 | 25 | 28 | 0.0 | 1.6 | 0.00 | 0.71 | 0.71 | 94 | 1017.1 |
| 20260901034425 | 25 | 28 | 0.0 | 0.0 | 0.00 | 0.71 | 0.71 | 94 | 1017.2 |
| 20260901032936 | 25 | 28 | 0.0 | 0.0 | 0.00 | 0.71 | 0.71 | 94 | 1017.2 |
| 20260901031936 | 25 | 28 | 0.0 | 1.6 | 0.00 | 0.71 | 0.71 | 94 | 1017.3 |
| 20260901030937 | 25 | 28 | 1.6 | 4.8 | 0.00 | 0.71 | 0.71 | 94 | 1017.4 |
| 20260901025936 | 25 | 28 | 0.0 | 4.8 | 0.00 | 0.71 | 0.71 | 94 | 1017.3 |
| 20260901024935 | 25 | 28 | 1.6 | 4.8 | 0.00 | 0.71 | 0.71 | 94 | 1017.2 |
| 20260901023936 | 25 | 28 | 0.0 | 3.2 | 0.00 | 0.71 | 0.71 | 94 | 1017.2 |
| 20260901022937 | 25 | 28 | 0.0 | 0.0 | 0.00 | 0.71 | 0.71 | 94 | 1017.1 |
| 20260901021940 | 25 | 28 | 0.0 | 1.6 | 0.00 | 0.71 | 0.71 | 94 | 1016.9 |
| 20260901020920 | 25 | 28 | 0.0 | 0.0 | 0.00 | 0.71 | 0.71 | 94 | 1016.9 |
| 20260901015917 | 26 | 28 | 0.0 | 3.2 | 0.00 | 0.71 | 0.71 | 94 | 1016.9 |
| 20260901015347 | 25 | 28 | 0.0 | 3.2 | 0.00 | 0.71 | 0.71 | 94 | 1016.7 |
| 20260901013858 | 25 | 28 | 0.0 | 0.0 | 0.00 | 0.71 | 0.71 | 94 | 1016.6 |
| 20260901012838 | 25 | 28 | 0.0 | 0.0 | 0.00 | 0.71 | 0.71 | 94 | 1016.6 |
| 20260901011835 | 25 | 28 | 0.0 | 0.0 | 0.00 | 0.71 | 0.71 | 94 | 1016.6 |
| 20260901010818 | 25 | 28 | 0.0 | 0.0 | 0.00 | 0.71 | 0.71 | 94 | 1016.5 |
| 20260901005753 | 26 | 28 | 0.0 | 1.6 | 0.00 | 0.71 | 0.71 | 94 | 1016.3 |
| 20260901004737 | 26 | 28 | 0.0 | 0.0 | 0.00 | 0.71 | 0.71 | 94 | 1016.3 |
| 20260901003735 | 26 | 28 | 0.0 | 0.0 | 0.00 | 0.71 | 0.71 | 94 | 1016.3 |
| 20260901002729 | 26 | 28 | 0.0 | 0.0 | 0.00 | 0.71 | 0.71 | 93 | 1016.4 |
| 20260901001719 | 26 | 28 | 0.0 | 0.0 | 0.00 | 0.71 | 0.71 | 93 | 1016.3 |
| 20260901000637 | 26 | 28 | 0.0 | 3.2 | 0.00 | 0.71 | 0.71 | 93 | 1016.3 |
| 20260901000112 | 26 | 28 | 0.0 | 0.0 | 0.00 | 0.71 | 0.71 | 93 | 1016.4 |
| 20260831234628 | 26 | 28 | 0.0 | 0.0 | 0.00 | 0.71 | 0.71 | 93 | 1016.2 |
| 20260831233622 | 26 | 28 | 0.0 | 0.0 | 0.00 | 0.71 | 0.71 | 93 | 1016.0 |
| 20260831232621 | 26 | 28 | 0.0 | 0.0 | 0.00 | 0.71 | 0.71 | 93 | 1016.0 |
| 20260831231617 | 26 | 28 | 0.0 | 0.0 | 0.00 | 0.71 | 0.71 | 92 | 1016.0 |
| 20260831230603 | 26 | 28 | 0.0 | 1.6 | 0.00 | 0.71 | 0.71 | 92 | 1016.0 |
| 20260831225550 | 26 | 28 | 1.6 | 6.4 | 0.00 | 0.71 | 0.71 | 91 | 1016.1 |
| 20260831224547 | 26 | 28 | 1.6 | 6.4 | 0.00 | 0.71 | 0.71 | 91 | 1016.1 |
| 20260831223547 | 26 | 28 | 1.6 | 4.8 | 0.00 | 0.71 | 0.71 | 91 | 1016.1 |
| 20260831222545 | 26 | 28 | 3.2 | 6.4 | 0.00 | 0.71 | 0.71 | 91 | 1016.1 |
| 20260831222015 | 26 | 28 | 3.2 | 8.0 | 0.00 | 0.71 | 0.71 | 90 | 1016.1 |
| 20260831220534 | 26 | 31 | 3.2 | 6.4 | 0.00 | 0.71 | 0.71 | 91 | 1016.0 |
| 20260831220015 | 26 | 35 | 3.2 | 6.4 | 0.00 | 0.71 | 0.71 | 91 | 1016.2 |
| 20260831214529 | 26 | 36 | 3.2 | 8.0 | 0.03 | 0.71 | 0.71 | 92 | 1016.2 |
| 20260831213527 | 26 | 31 | 3.2 | 6.4 | 0.05 | 0.71 | 0.71 | 92 | 1016.3 |
| 20260831212528 | 26 | 28 | 3.2 | 8.0 | 0.05 | 0.71 | 0.71 | 92 | 1016.4 |
| 20260831211527 | 25 | 21 | 3.2 | 11.3 | 0.08 | 0.71 | 0.71 | 92 | 1016.5 |
| 20260831210527 | 26 | 93 | 1.6 | 6.4 | 0.08 | 0.71 | 0.71 | 92 | 1016.5 |
| 20260831205514 | 25 | 93 | 3.2 | 9.7 | 0.10 | 0.71 | 0.71 | 92 | 1016.3 |
| 20260831204513 | 25 | 77 | 3.2 | 8.0 | 0.10 | 0.69 | 0.69 | 92 | 1016.4 |
| 20260831203509 | 25 | 21 | 1.6 | 4.8 | 0.10 | 0.66 | 0.66 | 92 | 1016.5 |
| 20260831202939 | 25 | 21 | 3.2 | 8.0 | 0.13 | 0.66 | 0.66 | 92 | 1016.5 |
| 20260831201500 | 25 | 119 | 4.8 | 12.9 | 0.13 | 0.64 | 0.64 | 92 | 1016.4 |
| 20260831201436 | 25 | 76 | 4.8 | 14.5 | 0.18 | 0.64 | 0.64 | 91 | 1016.6 |
| 20260831195456 | 25 | 68 | 4.8 | 11.3 | 0.25 | 0.61 | 0.61 | 91 | 1016.9 |
| 20260831194453 | 25 | 52 | 4.8 | 12.9 | 0.48 | 0.58 | 0.58 | 91 | 1017.2 |
| 20260831193452 | 25 | 34 | 6.4 | 16.1 | 0.56 | 0.56 | 0.56 | 91 | 1017.3 |
| 20260831192451 | 25 | 55 | 6.4 | 24.1 | 0.53 | 0.53 | 0.53 | 90 | 1017.1 |
| 20260831191444 | 25 | 75 | 8.0 | 16.1 | 0.51 | 0.51 | 0.51 | 89 | 1016.7 |
| 20260831190443 | 25 | 104 | 11.3 | 25.7 | 0.46 | 0.46 | 0.46 | 88 | 1016.4 |
| 20260831185441 | 25 | 36 | 9.7 | 24.1 | 0.36 | 0.36 | 0.36 | 87 | 1016.3 |
| 20260831184444 | 26 | 59 | 12.9 | 22.5 | 0.10 | 0.10 | 0.10 | 83 | 1016.4 |
| 20260831183439 | 29 | 81 | 11.3 | 24.1 | 0.00 | 0.00 | 0.00 | 75 | 1016.3 |
| 20260831182439 | 31 | 63 | 6.4 | 22.5 | 0.00 | 0.00 | 0.00 | 69 | 1016.2 |
| 20260831181434 | 32 | 64 | 6.4 | 11.3 | 0.00 | 0.00 | 0.00 | 63 | 1016.0 |
| 20260831180433 | 34 | 60 | 8.0 | 14.5 | 0.00 | 0.00 | 0.00 | 64 | 1016.0 |